STARLINK-35259, 66197

Orbit data source: Space-Track

STARLINK-35259, 66197 is a payload satellite owned by SpaceX/Seattle (US) in LEO that was launched on Sun, 26 Oct 2025 UTC via an FALCON 9 launch vehicle from the Air Force Eastern Test Range (AFETR). Payload-class satellites include a variety of spacecraft equipped with specific instruments for various scientific and technological missions. These include communications satellites like Starlink; space stations such as the ISS; scientific satellites like the Hubble; Earth observation satellites from companies like Planet Labs, Umbra, and HawkEye 360; GPS; miniature CubeSats for education and research; and military/defense satellites.

Loading next visibility...
Identifier
66197, 2025-243X
Orbit
LEO
Country
Flag of USUS
Related business
Manufacturer
SpaceX/Seattle
Mission
Operational Commercial Communications
Bus & Motor
STARLINK V2MO, Unknown motor
Mass
575 kg wet, ~530 kg dry
Launch date (UTC)
2025-10-26 (8 months ago)
Launch vehicle
FALCON 9
Launch site
Air Force Eastern Test Range (AFETR)
Object type
Payload
Rocket body
Debris
Shape & HBR
Box + 2 Pan, 17.7 m
Radar Cross Section
36.964 m², Large (>1 m²)

Expand to show TLE details & history
Last TLE update: 16 hours ago

TLE from 16 hours ago
0 STARLINK-35259
1 66197U 25243X   26171.17226086  .00014139  00000-0  48841-3 0  9990
2 66197  53.1587 129.2836 0001457 100.0787 260.0378 15.30211761 36340
Epoch: 2026-06-20T04:08Z
TLE epoch observation values (Epoch: 2026-06-20T04:08:03.338Z)
Latitude
-0.00003°
Longitude
158.87897°
Altitude
476.252 km
Speed
7.629 km/s
True Right ascension
08h 37m 08s
True Declination
0° 00' 00"
Sunlit
Object was in daylight at epoch
Visualization orbit readout
Latitude
Unknown
Longitude
Unknown
Altitude
Unknown
Speed
Unknown
Apparent Right ascension
Unknown
Apparent Declination
Unknown
Sunlit
N/A
Visualization observer readout
Local Sidereal Time
07:24:31
Azimuth
Unknown
Elevation
Unknown
Doppler factor
Unknown
Orbital elements
Apogee altitude
476.435 km
Perigee altitude
474.438 km
Semi-major axis
6,853.574 km
Eccentricity
0.00015
Inclination
53.1587°
RAAN
129.2836°
Arg. of periapsis
100.0787°
True anomaly
260.02136°
Mean anomaly
260.0378°
Eccentric anomaly
260.02958°
Mean motion
3.82532 °/min
Orbital period
94.11 mins
BSTAR
0.00048841
Loading maneuver chart data...
Computing Atmospheric mass density...
Loading historical data...
Loading historical data...
Loading historical data...
Loading historical data...
Loading historical data...
Loading historical data...
Loading historical data...

Documentation

Showing up to 5 results
|